カタログに戻る

FENGYUN 1C DEB

運用中PO
NORAD 31914·DEBRIS·🇨🇳 China

打ち上げ May 10, 1999 から Taiyuan Satellite Launch Center

Loading…

次のパス (今後24時間)

TLE

最新Source: Space-Track

元期: Sep 13, 2026, 15:42 UTC

1 31914U 99025CLR 26256.65434051  .00000526  00000-0  10786-3 0  9990
2 31914  98.9876 146.5843 0180531 316.8109  41.9045 14.56114895724734

AllMySatでFENGYUN 1C DEBをリアルタイム追跡

Download on the App Store